TimeCST,TemperatureF,Dew PointF,Humidity,Sea Level PressureIn,VisibilityMPH,Wind Direction,Wind SpeedMPH,Gust SpeedMPH,PrecipitationIn,Events,Conditions,WindDirDegrees,DateUTC
12:53 AM,46.9,37.0,68,30.02,10.0,West,4.6,-,N/A,,Clear,260,2013-11-18 06:53:00
1:53 AM,45.0,37.0,74,30.04,10.0,West,3.5,-,N/A,,Clear,260,2013-11-18 07:53:00
2:53 AM,39.9,35.1,83,30.02,10.0,Calm,Calm,-,N/A,,Clear,0,2013-11-18 08:53:00
3:53 AM,43.0,37.0,80,30.04,10.0,WSW,4.6,-,N/A,,Clear,250,2013-11-18 09:53:00
4:53 AM,43.0,36.0,76,30.07,10.0,WSW,5.8,-,N/A,,Clear,250,2013-11-18 10:53:00
5:53 AM,42.1,36.0,79,30.09,10.0,WSW,5.8,-,N/A,,Clear,240,2013-11-18 11:53:00
6:53 AM,41.0,36.0,82,30.12,10.0,West,4.6,-,N/A,,Clear,270,2013-11-18 12:53:00
7:53 AM,45.0,37.9,76,30.14,10.0,WNW,6.9,-,N/A,,Clear,290,2013-11-18 13:53:00
8:53 AM,48.0,36.0,63,30.18,10.0,West,6.9,-,N/A,,Clear,280,2013-11-18 14:53:00
9:53 AM,51.1,35.1,54,30.20,10.0,North,-9999.0,-,N/A,,Clear,0,2013-11-18 15:53:00
10:53 AM,52.0,28.9,41,30.21,10.0,NW,19.6,23.0,N/A,,Clear,310,2013-11-18 16:53:00
11:53 AM,53.1,28.9,40,30.21,10.0,WNW,18.4,23.0,N/A,,Clear,300,2013-11-18 17:53:00
12:53 PM,55.0,28.9,37,30.21,10.0,NW,17.3,24.2,N/A,,Clear,310,2013-11-18 18:53:00
1:53 PM,55.0,28.0,35,30.22,10.0,NW,15.0,21.9,N/A,,Clear,310,2013-11-18 19:53:00
2:53 PM,55.0,26.1,33,30.22,10.0,NW,12.7,-,N/A,,Clear,310,2013-11-18 20:53:00
3:53 PM,54.0,25.0,33,30.23,10.0,NW,12.7,-,N/A,,Clear,320,2013-11-18 21:53:00
4:53 PM,50.0,24.1,36,30.24,10.0,NNW,12.7,-,N/A,,Clear,330,2013-11-18 22:53:00
5:53 PM,46.0,24.1,42,30.25,10.0,NNW,4.6,-,N/A,,Clear,340,2013-11-18 23:53:00
6:53 PM,42.1,26.1,53,30.27,10.0,NNW,3.5,-,N/A,,Clear,330,2013-11-19 00:53:00
7:53 PM,39.0,28.0,65,30.28,10.0,Calm,Calm,-,N/A,,Clear,0,2013-11-19 01:53:00
8:53 PM,37.0,28.0,70,30.30,10.0,Calm,Calm,-,N/A,,Clear,0,2013-11-19 02:53:00
9:53 PM,34.0,28.0,79,30.30,10.0,Calm,Calm,-,N/A,,Clear,0,2013-11-19 03:53:00
10:53 PM,30.9,28.9,92,30.32,10.0,Calm,Calm,-,N/A,,Clear,0,2013-11-19 04:53:00
11:53 PM,30.9,28.0,89,30.32,10.0,Calm,Calm,-,N/A,,Clear,0,2013-11-19 05:53:00